Location: Ottawa
(45.4170°N, 75.7000°W)
Time: 13:31:42
(UTC-04:00)

Iridium 91 - Visible Passes

Search period start: 26 April 2018 00:00
Search period end: 06 May 2018 00:00
Orbit: 775 x 779 km, 86.4° (Epoch: 26 April)

Date Brightness Start Highest point End Pass type
(mag) Time Alt. Az. Time Alt. Az. Time Alt. Az.
26 Apr 5.5 21:13:06 10° S 21:18:19 85° E 21:23:34 10° N visible
26 Apr 8.3 22:57:21 10° W 22:59:46 13° WNW 23:02:11 10° NW visible
27 Apr 5.8 20:39:53 10° SSE 20:44:52 48° E 20:49:52 10° NNE visible
27 Apr 7.8 22:21:47 10° SW 22:25:51 23° WNW 22:29:56 10° NNW visible
28 Apr 6.9 21:47:13 10° SSW 21:52:04 39° W 21:56:57 10° N visible
29 Apr 5.9 21:13:13 10° S 21:18:25 69° W 21:23:38 10° N visible
30 Apr 5.5 20:39:43 10° S 20:44:53 68° E 20:50:05 10° N visible
30 Apr 8.2 22:22:55 10° WSW 22:26:09 16° WNW 22:29:24 10° NNW visible
01 May 7.6 21:47:50 10° SW 21:52:17 28° WNW 21:56:45 10° NNW visible
02 May 6.6 21:13:32 10° SSW 21:18:33 48° W 21:23:37 10° N visible
03 May 5.6 20:39:44 10° S 20:44:57 86° W 20:50:12 10° N visible
03 May 8.6 22:24:45 10° W 22:26:31 12° WNW 22:28:16 10° NW visible
04 May 8.2 21:48:44 10° WSW 21:52:34 20° WNW 21:56:24 10° NNW visible
05 May 7.3 21:14:01 10° SW 21:18:45 35° W 21:23:30 10° NNW visible
